GW7053 Weather Reports


time (UTC)temp
F
wind
direction
speed
knots
gust
knots
rain 1hr
in
rain 24hr
in
rain mn
in
humidity
%
barometer
mb
20260504202717 80 99 1.7 3.5 0.00 0.00 0.00 28 1015.6
20260504202215 80 127 1.7 6.1 0.00 0.00 0.00 27 1016.0
20260504201712 81 66 0.9 0.9 0.00 0.00 0.00 29 1015.9
20260504201209 81 220 1.7 3.5 0.00 0.00 0.00 27 1016.0
20260504200707 81 23 0.0 6.1 0.00 0.00 0.00 28 1016.2
20260504200203 80 215 2.6 5.2 0.00 0.00 0.00 27 1016.2
20260504195659 81 192 1.7 6.1 0.00 0.00 0.00 27 1015.9
20260504195155 80 231 1.7 3.5 0.00 0.00 0.00 28 1016.2
20260504194652 82 206 3.5 7.0 0.00 0.00 0.00 27 1016.1
20260504194148 82 256 1.7 2.6 0.00 0.00 0.00 27 1016.1
20260504193645 82 69 0.0 6.1 0.00 0.00 0.00 27 1016.4
20260504193143 81 8 0.0 3.5 0.00 0.00 0.00 27 1016.3
20260504192640 82 141 1.7 3.5 0.00 0.00 0.00 26 1016.2
20260504192138 81 232 1.7 3.5 0.00 0.00 0.00 26 1016.3
20260504191636 80 94 2.6 3.5 0.00 0.00 0.00 27 1016.4
20260504191132 80 115 1.7 2.6 0.00 0.00 0.00 28 1016.4
20260504190628 80 238 0.9 1.7 0.00 0.00 0.00 28 1016.7
20260504190125 81 317 0.9 1.7 0.00 0.00 0.00 26 1016.5
20260504185622 83 90 0.0 1.7 0.00 0.00 0.00 27 1016.8
20260504185118 82 54 0.0 2.6 0.00 0.00 0.00 28 1016.6
20260504184614 80 179 0.9 2.6 0.00 0.00 0.00 29 1016.9
20260504184109 81 221 2.6 5.2 0.00 0.00 0.00 27 1017.1
20260504183607 80 231 0.0 0.9 0.00 0.00 0.00 28 1016.9
20260504183105 79 70 0.9 3.5 0.00 0.00 0.00 29 1017.1
20260504182601 79 247 3.5 3.5 0.00 0.00 0.00 27 1017.2
20260504182059 79 53 0.9 2.6 0.00 0.00 0.00 29 1017.1
20260504181556 79 195 0.9 5.2 0.00 0.00 0.00 28 1017.3
20260504181054 80 72 0.0 2.6 0.00 0.00 0.00 28 1017.2
20260504180553 81 211 0.9 3.5 0.00 0.00 0.00 28 1017.3
20260504180051 80 52 0.9 1.7 0.00 0.00 0.00 27 1017.4
20260504175548 78 48 0.9 5.2 0.00 0.00 0.00 28 1017.4
20260504175045 78 20 0.9 5.2 0.00 0.00 0.00 27 1017.6
20260504174543 79 278 0.9 1.7 0.00 0.00 0.00 28 1017.4
20260504174039 78 117 0.9 5.2 0.00 0.00 0.00 30 1017.6
20260504173536 79 326 1.7 3.5 0.00 0.00 0.00 30 1017.5
20260504173034 80 359 0.9 1.7 0.00 0.00 0.00 28 1017.7
20260504172530 80 12 0.9 2.6 0.00 0.00 0.00 28 1017.8
20260504172026 80 28 0.9 0.9 0.00 0.00 0.00 28 1017.9
20260504171523 78 66 0.0 2.6 0.00 0.00 0.00 29 1018.1
20260504171020 78 310 0.9 6.1 0.00 0.00 0.00 30 1018.2
20260504170516 77 225 1.7 1.7 0.00 0.00 0.00 28 1017.9
20260504160436 75 172 3.5 6.1 0.00 0.00 0.00 37 1019.1
20260504150900 69 112 0.9 1.7 0.00 0.00 0.00 43 1019.1
20260504150356 68 82 0.9 6.1 0.00 0.00 0.00 45 1019.2
20260504141327 65 41 0.0 0.0 0.00 0.00 0.00 55 1019.4
20260504140823 65 51 0.0 2.6 0.00 0.00 0.00 54 1019.3
20260504140319 64 253 0.9 2.6 0.00 0.00 0.00 55 1019.4
20260504130748 62 25 0.9 0.9 0.00 0.00 0.00 63 1019.4
20260504130244 61 92 0.0 0.9 0.00 0.00 0.00 64 1019.6
20260504120208 51 66 0.0 0.0 0.00 0.00 0.00 87 1019.6
20260504110635 43 36 0.0 0.0 0.00 0.00 0.00 96 1019.8
20260504110131 43 38 0.0 0.0 0.00 0.00 0.00 95 1019.8
20260504100557 42 36 0.0 0.0 0.00 0.00 0.00 95 1019.7
20260504081950 43 37 0.0 0.0 0.00 0.00 0.00 91 1019.6
20260504081448 43 37 0.0 0.0 0.00 0.00 0.00 91 1019.6
20260504080943 44 38 0.0 0.0 0.00 0.00 0.00 91 1019.6
20260504080440 44 38 0.0 0.0 0.00 0.00 0.00 91 1019.5
20260504070408 43 34 0.0 0.0 0.00 0.00 0.00 90 1019.5
20260504050253 44 40 0.0 0.0 0.00 0.00 0.00 86 1019.6
20260504045751 44 40 0.0 0.0 0.00 0.00 0.00 85 1019.8
20260504045250 43 40 0.0 0.0 0.00 0.00 0.00 85 1019.6
20260504044748 44 40 0.0 0.0 0.00 0.00 0.00 84 1019.8
20260504044246 44 41 0.0 0.0 0.00 0.00 0.00 84 1019.9
20260504043743 44 41 0.0 0.0 0.00 0.00 0.00 83 1020.0
20260504043239 44 41 0.0 0.0 0.00 0.00 0.00 83 1019.9
20260504042737 44 34 0.0 0.0 0.00 0.00 0.00 81 1019.8
20260504042233 44 34 0.0 0.0 0.00 0.00 0.00 81 1019.9
20260504041730 44 34 0.0 0.0 0.00 0.00 0.00 80 1019.9
20260504041226 44 34 0.0 0.0 0.00 0.00 0.00 79 1019.9
20260504040722 45 32 0.0 0.0 0.00 0.00 0.00 80 1019.7
20260504040220 45 42 0.0 0.0 0.00 0.00 0.00 80 1019.9
20260504035716 45 43 0.0 0.0 0.00 0.00 0.00 79 1019.9
20260504035213 45 51 0.0 0.0 0.00 0.00 0.00 80 1019.9
20260504034710 45 48 0.0 0.0 0.00 0.00 0.00 78 1020.0
20260504034208 45 48 0.0 0.0 0.00 0.00 0.00 78 1020.0
20260504033705 45 48 0.0 0.0 0.00 0.00 0.00 78 1019.8
20260504033202 45 48 0.0 0.0 0.00 0.00 0.00 77 1019.7
20260504032659 46 48 0.0 0.0 0.00 0.00 0.00 78 1019.6
20260504032156 46 61 0.0 0.0 0.00 0.00 0.00 77 1019.7
20260504031653 46 45 0.0 0.0 0.00 0.00 0.00 76 1019.8
20260504031149 46 45 0.0 0.0 0.00 0.00 0.00 75 1019.7
20260504030646 46 51 0.0 0.0 0.00 0.00 0.00 75 1019.6
20260504030143 46 43 0.0 0.0 0.00 0.00 0.00 75 1019.3
20260504025640 47 43 0.0 0.0 0.00 0.00 0.00 73 1019.6
20260504025136 47 43 0.0 0.0 0.00 0.00 0.00 73 1019.6
20260504024634 47 43 0.0 0.0 0.00 0.00 0.00 74 1019.6
20260504024130 47 41 0.0 0.0 0.00 0.00 0.00 73 1019.5
20260504023627 47 43 0.0 0.0 0.00 0.00 0.00 72 1019.6
20260504023123 48 42 0.0 0.0 0.00 0.00 0.00 72 1019.5
20260504022619 48 45 0.0 0.0 0.00 0.00 0.00 71 1019.7
20260504022115 48 49 0.0 0.0 0.00 0.00 0.00 70 1019.6
20260504021614 48 41 0.0 0.0 0.00 0.00 0.00 69 1019.6
20260504021110 49 41 0.0 0.0 0.00 0.00 0.00 68 1019.6
20260504020607 49 41 0.0 0.0 0.00 0.00 0.00 67 1019.6
20260504020103 49 38 0.0 0.0 0.00 0.00 0.00 67 1019.6
20260504015600 50 32 0.0 0.0 0.00 0.00 0.00 66 1019.6
20260504015055 50 33 0.0 0.0 0.00 0.00 0.00 66 1019.5
20260504014552 50 33 0.0 0.0 0.00 0.00 0.00 64 1019.6
20260504014049 50 35 0.0 0.0 0.00 0.00 0.00 64 1019.6
20260504013547 51 33 0.0 0.0 0.00 0.00 0.00 63 1019.4
20260504013044 51 34 0.0 0.0 0.00 0.00 0.00 62 1019.4
20260504012541 51 20 0.0 0.0 0.00 0.00 0.00 62 1019.4
20260504012039 51 39 0.0 0.0 0.00 0.00 0.00 61 1019.2
20260504011535 52 46 0.0 0.0 0.00 0.00 0.00 59 1019.1
20260504011031 52 46 0.0 0.0 0.00 0.00 0.00 59 1019.2
20260504010527 53 33 0.0 0.0 0.00 0.00 0.00 58 1018.9
20260504010023 53 35 0.0 0.0 0.00 0.00 0.00 57 1018.6
20260504005520 53 41 0.0 0.0 0.00 0.00 0.00 55 1018.7
20260504005018 54 43 0.0 0.0 0.00 0.00 0.00 56 1018.7
20260504004516 54 43 0.0 0.0 0.00 0.00 0.00 54 1018.6
20260504004012 55 31 0.0 0.0 0.00 0.00 0.00 53 1018.7
20260504003508 55 38 0.0 0.0 0.00 0.00 0.00 53 1018.6
20260504003006 56 53 0.0 0.0 0.00 0.00 0.00 51 1018.6
20260504002502 56 50 0.0 0.0 0.00 0.00 0.00 50 1018.4
20260504001959 57 50 0.0 0.0 0.00 0.00 0.00 48 1018.4
20260504001457 58 57 0.0 0.0 0.00 0.00 0.00 48 1018.4
20260504000953 58 56 0.0 0.0 0.00 0.00 0.00 46 1018.5
20260504000450 59 72 0.0 0.0 0.00 0.00 0.00 45 1018.2
20260503235948 59 50 0.0 0.0 0.00 0.00 0.00 43 1018.2
20260503235445 60 54 0.0 0.0 0.00 0.00 0.00 43 1018.1
20260503234943 61 64 0.0 0.0 0.00 0.00 0.00 42 1018.3
20260503234440 61 61 0.0 0.0 0.00 0.00 0.00 41 1018.2
20260503233938 62 48 0.0 0.0 0.00 0.00 0.00 39 1018.3
20260503233434 62 69 0.0 0.0 0.00 0.00 0.00 38 1018.3
20260503232931 63 82 0.0 0.0 0.00 0.00 0.00 36 1018.1
20260503232428 64 58 0.0 0.0 0.00 0.00 0.00 34 1018.0
20260503231926 64 59 0.0 0.0 0.00 0.00 0.00 33 1018.1
20260503231423 64 56 0.0 0.0 0.00 0.00 0.00 33 1018.3
20260503230919 65 41 0.0 0.9 0.00 0.00 0.00 31 1018.2
20260503230416 65 58 0.0 0.0 0.00 0.00 0.00 32 1018.0
20260503225914 65 39 0.0 0.9 0.00 0.00 0.00 31 1018.0
20260503225409 66 49 0.0 0.9 0.00 0.00 0.00 29 1018.1
20260503224906 66 62 0.0 2.6 0.00 0.00 0.00 30 1018.2
20260503224403 66 111 0.9 0.9 0.00 0.00 0.00 29 1018.3
20260503223900 66 29 0.0 0.9 0.00 0.00 0.00 29 1018.2
20260503223358 66 52 0.0 0.9 0.00 0.00 0.00 27 1018.0
20260503222853 67 73 0.0 0.0 0.00 0.00 0.00 27 1018.1
20260503222352 67 53 0.0 0.9 0.00 0.00 0.00 27 1018.1
20260503221850 67 35 0.0 0.0 0.00 0.00 0.00 29 1018.2
20260503221348 66 64 0.0 0.9 0.00 0.00 0.00 27 1018.1
20260503220844 66 68 0.0 0.9 0.00 0.00 0.00 27 1018.0
20260503220341 67 56 0.0 0.0 0.00 0.00 0.00 27 1018.1
20260503215838 67 54 0.0 0.9 0.00 0.00 0.00 26 1018.1
20260503215335 68 240 3.5 5.2 0.00 0.00 0.00 25 1018.2
20260503214833 68 28 0.0 0.9 0.00 0.00 0.00 26 1018.1
20260503214330 68 25 0.0 0.0 0.00 0.00 0.00 28 1018.3
20260503213827 69 237 0.9 2.6 0.00 0.00 0.00 26 1018.1
20260503213325 69 353 0.0 0.9 0.00 0.00 0.00 27 1018.2
20260503212821 69 27 0.0 1.7 0.00 0.00 0.00 27 1018.2
20260503212320 70 338 0.0 0.0 0.00 0.00 0.00 26 1018.4
20260503211816 70 270 0.0 2.6 0.00 0.00 0.00 25 1018.3
20260503211313 71 349 0.0 3.5 0.00 0.00 0.00 25 1018.5
20260503210813 70 320 0.0 0.9 0.00 0.00 0.00 24 1018.4
20260503210311 70 225 0.0 1.7 0.00 0.00 0.00 25 1018.3
20260503205806 70 203 0.9 1.7 0.00 0.00 0.00 26 1018.5
20260503205304 71 351 0.9 5.2 0.00 0.00 0.00 22 1018.4
20260503204759 70 346 0.0 0.0 0.00 0.00 0.00 25 1018.6
20260503204257 69 20 0.9 0.9 0.00 0.00 0.00 26 1018.4
20260503203754 69 38 0.0 0.9 0.00 0.00 0.00 27 1018.5
20260503203251 70 309 0.9 2.6 0.00 0.00 0.00 24 1018.7
20260503202748 70 22 2.6 5.2 0.00 0.00 0.00 24 1018.5